GW2873 Weather Reports


Display with metric or nautical units.
time (UTC)temp
F
wind
direction
speed
MPH
gust
MPH
rain 1hr
in
rain 24hr
in
rain mn
in
humidity
%
barometer
mb
20260510033109 47 292 0.0 5.0 0.00 0.77 0.77 94 1009.6
20260510031558 47 219 1.0 7.0 0.00 0.77 0.77 95 1009.5
20260510030106 47 194 1.0 4.0 0.00 0.77 0.77 96 1009.7
20260510024558 47 165 1.0 8.0 0.00 0.77 0.77 96 1009.5
20260510023057 47 0 2.0 9.0 0.00 0.77 0.77 96 1009.4
20260510021624 47 197 2.0 5.0 0.00 0.77 0.77 96 1009.6
20260510020057 47 183 1.0 6.0 0.00 0.77 0.77 96 1009.4
20260510014600 47 229 1.0 8.0 0.00 0.77 0.77 97 1009.3
20260510013055 47 355 1.0 6.0 0.00 0.77 0.77 96 1009.6
20260510011557 48 249 2.0 7.0 0.00 0.77 0.77 96 1009.5
20260510010058 48 204 1.0 6.0 0.00 0.77 0.77 96 1009.4
20260510004600 48 160 1.0 6.0 0.00 0.77 0.77 96 1009.0
20260510003100 48 194 1.0 4.0 0.00 0.77 0.77 96 1009.0
20260510001557 49 0 2.0 7.0 0.00 0.77 0.77 96 1009.0
20260510000058 49 153 0.0 5.0 0.00 0.77 0.77 96 1008.9
20260509234557 49 229 0.0 3.0 0.00 0.77 0.77 95 1008.6
20260509233054 50 207 1.0 4.0 0.00 0.77 0.77 94 1008.1
20260509231558 50 215 1.0 5.0 0.00 0.77 0.77 95 1008.4
20260509230100 49 153 1.0 6.0 0.00 0.77 0.77 95 1008.1
20260509224558 49 196 1.0 10.0 0.00 0.77 0.77 95 1008.0
20260509223057 49 117 1.0 6.0 0.00 0.77 0.77 95 1008.0
20260509221555 50 151 1.0 10.0 0.00 0.77 0.77 94 1008.3
20260509220106 50 92 1.0 9.0 0.00 0.77 0.77 94 1008.1
20260509214603 51 110 2.0 11.0 0.00 0.77 0.77 95 1008.5
20260509213131 50 216 2.0 10.0 0.00 0.77 0.77 93 1008.6
20260509211557 51 206 3.0 10.0 0.00 0.77 0.77 94 1008.6
20260509210105 50 221 1.0 8.0 0.02 0.77 0.77 96 1008.6
20260509204555 49 218 2.0 11.0 0.02 0.77 0.77 96 1008.7
20260509203100 49 304 3.0 12.0 0.02 0.77 0.77 96 1008.9
20260509201554 48 107 3.0 14.0 0.03 0.77 0.77 96 1009.0
20260509200104 48 138 2.0 11.0 0.01 0.75 0.75 96 1009.2
20260509194559 48 246 2.0 9.0 0.02 0.75 0.75 96 1009.3
20260509193058 48 141 3.0 10.0 0.03 0.75 0.75 96 1009.4
20260509191557 48 188 2.0 6.0 0.03 0.74 0.74 96 1009.4
20260509190056 48 161 2.0 10.0 0.04 0.74 0.74 96 1009.5
20260509184558 48 228 4.0 13.0 0.03 0.73 0.73 96 1009.6
20260509183103 48 133 4.0 10.0 0.04 0.72 0.72 96 1009.6
20260509181603 48 178 3.0 15.0 0.04 0.71 0.71 96 1009.4
20260509174556 48 218 2.0 8.0 0.05 0.70 0.70 97 1009.3
20260509173057 48 176 2.0 8.0 0.04 0.68 0.68 97 1009.2
20260509171555 47 222 1.0 7.0 0.04 0.67 0.67 96 1009.4
20260509170100 48 86 1.0 5.0 0.04 0.66 0.66 97 1009.4
20260509164604 47 106 1.0 4.0 0.04 0.65 0.65 97 1009.5
20260509163059 47 90 1.0 6.0 0.05 0.64 0.64 97 1009.7
20260509161554 47 86 1.0 9.0 0.07 0.63 0.63 97 1009.7
20260509160059 47 136 2.0 7.0 0.08 0.62 0.62 97 1009.8
20260509154614 47 106 1.0 6.0 0.09 0.61 0.61 97 1010.1
20260509153103 47 97 0.0 7.0 0.10 0.58 0.58 97 1010.4
20260509151555 47 161 0.0 4.0 0.09 0.56 0.56 97 1010.7
20260509150058 46 119 1.0 5.0 0.09 0.54 0.54 97 1010.7
20260509144600 46 0 1.0 6.0 0.09 0.52 0.52 97 1010.8
20260509143057 46 63 1.0 4.0 0.08 0.49 0.49 97 1010.8
20260509141600 46 136 1.0 8.0 0.08 0.47 0.47 97 1010.7
20260509140104 46 109 1.0 6.0 0.07 0.45 0.45 97 1010.6
20260509134558 46 108 1.0 3.0 0.05 0.43 0.43 97 1010.4
20260509133056 46 110 1.0 4.0 0.04 0.41 0.41 97 1010.4
20260509131556 46 0 1.0 4.0 0.02 0.39 0.39 97 1010.7
20260509130056 46 105 2.0 6.0 0.01 0.38 0.38 97 1010.7
20260509124608 45 120 1.0 6.0 0.01 0.38 0.38 97 1010.5
20260509123059 45 124 1.0 7.0 0.00 0.37 0.37 97 1010.6
20260509121607 45 98 1.0 4.0 0.01 0.37 0.37 97 1010.6
20260509120112 45 118 1.0 4.0 0.01 0.37 0.37 98 1010.7
20260509114557 45 84 1.0 4.0 0.01 0.37 0.37 98 1010.8
20260509113056 44 0 1.0 2.0 0.02 0.37 0.37 98 1010.9
20260509111557 44 0 0.0 4.0 0.01 0.36 0.36 98 1010.9
20260509110101 44 0 0.0 2.0 0.03 0.36 0.36 97 1010.9
20260509104557 44 124 0.0 5.0 0.05 0.36 0.36 97 1010.8
20260509103101 44 132 1.0 6.0 0.07 0.35 0.35 97 1010.9
20260509101600 44 102 0.0 2.0 0.09 0.35 0.35 97 1010.9
20260509100055 44 169 0.0 4.0 0.07 0.33 0.33 97 1010.8
20260509094600 44 0 0.0 2.0 0.07 0.31 0.31 97 1010.9
20260509093059 44 0 0.0 4.0 0.06 0.28 0.28 97 1010.7
20260509091622 43 101 0.0 2.0 0.06 0.26 0.26 97 1010.8
20260509090057 44 0 0.0 1.0 0.08 0.26 0.26 97 1010.4
20260509084558 44 0 0.0 6.0 0.08 0.24 0.24 96 1010.7
20260509083058 44 189 0.0 2.0 0.08 0.22 0.22 96 1010.9
20260509081557 44 250 0.0 3.0 0.08 0.20 0.20 96 1011.0
20260509080108 44 0 0.0 3.0 0.08 0.18 0.18 96 1011.0
20260509074559 44 160 1.0 5.0 0.09 0.16 0.16 96 1011.1
20260509073133 44 0 1.0 6.0 0.09 0.14 0.14 96 1011.3
20260509071553 44 0 0.0 5.0 0.09 0.12 0.12 95 1011.3
20260509070100 44 161 0.0 3.0 0.08 0.10 0.10 95 1011.4
20260509064556 44 0 0.0 2.0 0.07 0.07 0.07 95 1011.5
20260509063059 44 0 0.0 1.0 0.05 0.05 0.05 94 1011.3
20260509061601 44 0 0.0 1.0 0.03 0.03 0.03 93 1011.4
20260509060107 44 0 0.0 1.0 0.02 0.02 0.02 92 1011.5
20260509054612 44 177 0.0 2.0 0.00 0.01 0.00 90 1011.7
20260509053105 44 0 0.0 2.0 0.00 0.01 0.00 89 1011.7
20260509051557 44 0 0.0 4.0 0.00 0.01 0.00 87 1011.5
20260509050059 44 0 0.0 3.0 0.00 0.01 0.00 86 1011.7
20260509044555 44 0 0.0 3.0 0.00 0.01 0.00 85 1011.6
20260509043055 44 0 0.0 2.0 0.00 0.01 0.00 85 1011.9
20260509041557 44 0 0.0 3.0 0.00 0.01 0.00 85 1011.9
20260509040125 43 225 0.0 2.0 0.00 0.01 0.00 85 1011.8
20260509034600 43 0 0.0 1.0 0.00 0.01 0.01 84 1011.9